XW-2B (40911 NORAD) Tracking and Keplerian Element Data

This shows tracking and keplerian element data for the satellite.

Feedback or suggestion? Click here.




ElementValue
Catalog40911
NameXW-2B
Epoch Orbit39666
Epoch Day325.13758553
Epoch Year2022
RAAN328.1908
Inclination97.4943
Eccentricity0.0012741
Argument of Perigee159.0198
Mean Anonmoly265.9893
Mean Motion15.2171282
Decay Rate6.587E-05
L11 40911U 15049N 22325.13758553 .00006587 00000+0 29338-3 0 9998
L22 40911 97.4943 328.1908 0012741 159.0198 265.9893 15.21712820396663



Live tracking and technical data element details for XW-2B (NORAD 40911). XW-2B can be tracked NOW for your location showing map with azimuth and elevation plus other details from your city location.







IsCatalogInMostPopularTable: catalog: 40911, numindb: 425
Update: records affected: 1



GetName: 40911 XW-2B

Hit Count: updated at: Fri, 02 Dec 2022 12:08:20 GMT